Location: Normandy Village
(37.8755°N, 122.2655°W)
Time: 19:08:27
(UTC+00:00)

ATLAS 3B R/B - Pass Details

Date: 15 December 2019
Orbit: 1027 x 1168 km, 63.8° (Epoch: 19 January)

Event Time Altitude Azimuth Distance (km) Brightness Sun altitude
Rises 01:33:30 0° 307° (NW) 3,826 6.0 -8.4°
Reaches altitude 10° 01:37:33 10° 284° (WNW) 2,892 5.9 -9.2°
Maximum altitude 01:40:49 14° 255° (WSW) 2,618 6.2 -9.8°
Drops below altitude 10° 01:44:08 10° 226° (SW) 2,932 6.2 -10.4°
Sets 01:48:20 0° 202° (SSW) 3,916 6.3 -11.1°
